Location: Rio Tanui
(39.9167°N, 8.5167°E)
Time: 01:47:23
(UTC+00:00)

Cosmos 1602 Rocket - Pass Details

Date: 08 February 2023
Orbit: 603 x 630 km, 82.5° (Epoch: 01 April)

Event Time Altitude Azimuth Distance (km) Brightness Sun altitude
Rises 18:29:07 0° 186° (S) 2,844 7.1 -18.8°
Reaches altitude 10° 18:31:19 10° 187° (S) 1,943 6.2 -19.2°
Maximum altitude 18:35:37 89° 267° (W) 609 3.4 -20.0°
Drops below altitude 10° 18:39:57 10° 7° (N) 1,957 6.0 -20.9°
Sets 18:42:10 0° 8° (N) 2,867 6.9 -21.3°
